STARLINK-2581 (48412 NORAD) Tracking and Keplerian Element Data

This shows tracking and keplerian element data for the satellite.

Feedback or suggestion? Click here.




ElementValue
Catalog48412
NameSTARLINK-2581
Epoch Orbit367
Epoch Day210.91668981
Epoch Year2021
RAAN336.0389
Inclination53.0506
Eccentricity0.000345
Argument of Perigee5.4283
Mean Anonmoly247.7083
Mean Motion15.73242591
Decay Rate-0.00035233
L11 48412U 21038BM 21210.91668981 -.00035233 00000-0 -24705-3 0 9996
L22 48412 53.0506 336.0389 0003450 5.4283 247.7083 15.73242591 3672

Live tracking and technical data element details for STARLINK-2581 (NORAD 48412). STARLINK-2581 can be tracked NOW for your location showing map with azimuth and elevation plus other details from your city location.

Track the satellite on the map from your city or location and see movement details for azimuth, elevation, latitude, longitude, range, height, and movement on the map or in text.







IsCatalogInMostPopularTable: catalog: 48412, numindb: 36
Update: records affected: 1



GetName: 48412 STARLINK-2581

Hit Count: updated at: Sat, 31 Jul 2021 15:46:52 GMT